This is the latest recevied weather packets stored in our database for station/object KU4DD. If no packets are shown the sender has not sent any weather packets the latest 10 day(s).
| Time | Temp. | Humidity | Pressure | Rain* | Wind** | Luminosity | Snow |
|---|---|---|---|---|---|---|---|
| 1777973717 | 21.11° C | 53% | 1013.9 hPa | 0 mm | - | - | - |
| 1777973393 | 21.11° C | 52% | 1013.9 hPa | 0 mm | - | - | - |
| 1777970881 | 21.11° C | 53% | 1013.5 hPa | 0 mm | - | - | - |
| 1777969937 | 21.11° C | 52% | 1013.5 hPa | 0 mm | - | - | - |
| 1777965712 | 21.67° C | 50% | 1013.5 hPa | 0 mm | - | - | - |
| 1777963201 | 21.67° C | 51% | 1013.2 hPa | 0 mm | - | - | - |
| 1777953495 | 22.22° C | 49% | 1013.5 hPa | 0 mm | - | - | - |
| 1777953172 | 22.22° C | 48% | 1013.5 hPa | 0 mm | - | - | - |
| 1777950661 | 22.22° C | 48% | 1013.5 hPa | 0 mm | - | - | - |
| 1777949402 | 22.22° C | 47% | 1013.5 hPa | 0 mm | - | - | - |
| 1777947213 | 21.67° C | 49% | 1013.5 hPa | 0 mm | - | - | - |
| 1777946588 | 21.67° C | 50% | 1013.5 hPa | 0 mm | - | - | - |
| 1777945649 | 21.67° C | 50% | 1013.5 hPa | 0 mm | - | - | - |
| 1777944082 | 21.67° C | 49% | 1012.9 hPa | 0 mm | - | - | - |
| 1777941892 | 21.67° C | 47% | 1012.5 hPa | 0 mm | - | - | - |
| 1777941267 | 21.67° C | 48% | 1012.2 hPa | 0 mm | - | - | - |
| 1777940955 | 21.67° C | 47% | 1012.2 hPa | 0 mm | - | - | - |
| 1777939706 | 22.22° C | 47% | 1011.9 hPa | 0 mm | - | - | - |
| 1777938767 | 22.22° C | 46% | 1011.9 hPa | 0 mm | - | - | - |
| 1777932819 | 22.22° C | 49% | 1011.2 hPa | 0 mm | - | - | - |
| 1777931880 | 22.22° C | 46% | 1011.2 hPa | 0 mm | - | - | - |
| 1777931255 | 22.22° C | 46% | 1011.2 hPa | 0 mm | - | - | - |
| 1777929376 | 22.22° C | 48% | 1011.2 hPa | 0 mm | - | - | - |
| 1777926563 | 22.22° C | 48% | 1011.9 hPa | 0 mm | - | - | - |
| 1777925925 | 22.22° C | 45% | 1011.5 hPa | 0 mm | - | - | - |
* Rain latest hour (hover to see other rain measurements)
** Current wind speed in m/s (hover to see current wind gust speed)